Regional Weather Roundup
Issued by NWS

Home | Current Version | Previous Version | Graphics & Text | Print | Product List | Glossary On
Versions: 1 2 3 4 5 6 7 8 9 10 11 12 13 14 15 16 17 18 19 20 21 22 23 24 25 26 27 28 29 30 31 32 33 34 35 36 37 38 39 40 41 42 43 44 45 46 47 48 49 50
000
ASUS43 KBIS 290202
RWRND

NORTH DAKOTA REGIONAL WEATHER ROUNDUP
NATIONAL WEATHER SERVICE BISMARCK ND
900 PM CDT WED JUN 28 2017

NOTE: "FAIR" INDICATES FEW OR NO CLOUDS BELOW 12,000 FEET WITH NO
SIGNIFICANT WEATHER AND/OR OBSTRUCTIONS TO VISIBILITY.


NDZ001>003-009>011-017-290300-
NORTHWEST NORTH DAKOTA

CITY           SKY/WX    TMP DP  RH WIND       PRES   REMARKS
WILLISTON      PTCLDY    72  47  40 CALM      29.73R
MINOT          PTCLDY    75  47  36 NW8       29.71R
MINOT AFB      PTCLDY    73  48  40 NW7       29.70R
$$

NDZ018>021-031>035-040>046-290300-
SOUTHWEST NORTH DAKOTA

CITY           SKY/WX    TMP DP  RH WIND       PRES   REMARKS
BISMARCK       CLEAR     77  48  35 N6        29.73R
DICKINSON      CLOUDY    70  44  39 E7        29.75S
GARRISON         N/A     71  50  47 CALM      29.73R
HETTINGER ARPT CLOUDY    75  35  23 E9        29.77S
$$

NDZ004>008-012>016-024-026-027-054-290300-
NORTHEAST NORTH DAKOTA

CITY           SKY/WX    TMP DP  RH WIND       PRES   REMARKS
GRAND FORKS    CLOUDY    67  64  90 N6        29.64S
GRND FRKS AFB  PTCLDY    65  63  93 N5        29.66R
DEVILS LAKE    CLEAR     69  58  67 NW7       29.69R
$$

NDZ022-023-025-028>030-036>039-047>053-290300-
SOUTHEAST NORTH DAKOTA

CITY           SKY/WX    TMP DP  RH WIND       PRES   REMARKS
FARGO          MOCLDY    66  63  90 N10       29.64R
JAMESTOWN      CLEAR     71  50  47 N8        29.69R
$$





USA.gov is the U.S. government's official web portal to all federal, state and local government web resources and services.